Weather History for Karlovy Vary, Czech Republic

Change the Weather History Date:

Saturday, December 8, 2012

  Actual Average (EDQM) Record (EDQM)
Temperature  
Mean Temperature 14 °F -  
Max Temperature 19 °F 34 °F 50 °F (2006)
Min Temperature 8 °F 27 °F 10 °F (1998)
Degree Days  
Heating Degree Days 52    
Moisture  
Dew Point 13 °F    
Average Humidity 91    
Maximum Humidity 93    
Minimum Humidity 85    
Precipitation  
Precipitation 0.00 in - - ()
Sea Level Pressure  
Sea Level Pressure 30.00 in    
Wind  
Wind Speed 3 mph ()    
Max Wind Speed 8 mph    
Max Gust Speed -    
Visibility 4.7 miles    
Events      
Averages and records for this station are not official NWS values.
T = Trace of Precipitation, MM = Missing Value Source: Averaged Metar Reports

Daily Weather History Graph

Daily Weather History Graph

Search for Another Location

Airport:

Trip Planner

Search our weather history database for the weather conditions in past years. The results will help you decide how hot, cold, wet, or windy it might be!

Date:

Astronomy

Dec. 08, 2012 Rise Set
Actual Time 7:54 AM CET 4:05 PM CET
Civil Twilight 7:16 AM CET 4:44 PM CET
Nautical Twilight 6:35 AM CET 5:25 PM CET
Astronomical Twilight 5:55 AM CET 6:04 PM CET
Moon 1:31 AM CET (12/8) 12:51 PM CET (12/8)
Length of Visible Light 9h 27m
Length of Day
8h 10m
Waning Crescent, 31% of the Moon is Illuminated
Dec 8
Waning Crescent
Dec 13
New
Dec 20
First Quarter
Dec 28
Full
Jan 5
Last Quarter

Hourly Weather History & Observations

Time (CET) Temp. Windchill Dew Point Humidity Pressure Visibility Wind Dir Wind Speed Gust Speed Precip Events Conditions
12:00 AM 15.8 °F 6.1 °F 14.0 °F 93% 29.80 in 3.1 mi NE 6.9 mph - N/A   Overcast
1:00 AM 15.8 °F 10.2 °F 14.0 °F 93% 29.80 in 3.1 mi ENE 3.5 mph - N/A   Overcast
2:00 AM 15.8 °F 7.2 °F 14.0 °F 93% 29.83 in 3.1 mi NNE 5.8 mph - N/A   Overcast
3:00 AM 15.8 °F 5.1 °F 12.2 °F 86% 29.83 in 3.1 mi ENE 8.1 mph - N/A   Overcast
4:00 AM 15.8 °F - 12.2 °F 86% 29.86 in 5.0 mi Variable 1.2 mph - N/A   Overcast
5:00 AM 15.8 °F 10.2 °F 14.0 °F 93% 29.86 in 3.7 mi NNE 3.5 mph - N/A   Mostly Cloudy
6:00 AM 14.0 °F 8.2 °F 12.2 °F 93% 29.89 in 3.1 mi Variable 3.5 mph - N/A   Mostly Cloudy
7:00 AM 12.2 °F 4.3 °F 10.4 °F 92% 29.89 in 5.0 mi NNE 4.6 mph - N/A   Mostly Cloudy
7:30 AM 14.0 °F 5.1 °F 10.4 °F 86% 29.92 in 5.0 mi NE 5.8 mph - N/A   Mostly Cloudy
8:00 AM 14.0 °F 6.5 °F 12.2 °F 93% 29.92 in 5.0 mi NNE 4.6 mph - N/A   Mostly Cloudy
8:30 AM 15.8 °F 8.6 °F 12.2 °F 86% 29.95 in 3.7 mi NNE 4.6 mph - N/A   Mostly Cloudy
9:00 AM 14.0 °F - 12.2 °F 93% 29.95 in 4.3 mi Variable 2.3 mph - N/A   Mostly Cloudy
9:30 AM 15.8 °F - 14.0 °F 93% 29.98 in 3.7 mi Variable 2.3 mph - N/A   Mostly Cloudy
10:00 AM 15.8 °F 10.2 °F 14.0 °F 93% 29.98 in 3.7 mi East 3.5 mph - N/A   Mostly Cloudy
10:30 AM 15.8 °F 8.6 °F 14.0 °F 93% 30.01 in 4.3 mi ESE 4.6 mph - N/A   Mostly Cloudy
11:00 AM 17.6 °F 12.3 °F 14.0 °F 86% 30.01 in 4.3 mi South 3.5 mph - N/A   Mostly Cloudy
11:30 AM 17.6 °F 12.3 °F 15.8 °F 93% 30.04 in 5.0 mi SSW 3.5 mph - N/A   Mostly Cloudy
12:00 PM 17.6 °F 12.3 °F 15.8 °F 93% 30.04 in 5.6 mi SSW 3.5 mph - N/A   Mostly Cloudy
12:30 PM 17.6 °F - 15.8 °F 93% 30.04 in 5.6 mi Variable 2.3 mph - N/A   Mostly Cloudy
1:00 PM 17.6 °F 10.7 °F 15.8 °F 93% 30.06 in 5.6 mi SW 4.6 mph - N/A   Mostly Cloudy
1:30 PM 17.6 °F 10.7 °F 15.8 °F 93% 30.06 in 5.6 mi SW 4.6 mph - N/A   Mostly Cloudy
2:00 PM 19.4 °F 14.3 °F 15.8 °F 86% 30.06 in 6.2 mi West 3.5 mph - N/A   Mostly Cloudy
2:30 PM 17.6 °F 10.7 °F 15.8 °F 93% 30.06 in 6.2 mi West 4.6 mph - N/A   Mostly Cloudy
3:00 PM 17.6 °F 10.7 °F 15.8 °F 93% 30.06 in 6.2 mi NW 4.6 mph - N/A   Scattered Clouds
3:30 PM 17.6 °F - 15.8 °F 93% 30.06 in 6.2 mi West 2.3 mph - N/A   Scattered Clouds
4:00 PM 17.6 °F - 15.8 °F 93% 30.06 in 6.2 mi Variable 2.3 mph - N/A   Partly Cloudy
4:30 PM 15.8 °F - 14.0 °F 93% 30.06 in - Calm Calm - N/A   Clear
5:00 PM 14.0 °F - 12.2 °F 93% 30.09 in - Variable 1.2 mph - N/A   Clear
5:30 PM 14.0 °F - 12.2 °F 93% 30.09 in - Calm Calm - N/A   Clear
6:00 PM 12.2 °F - 10.4 °F 92% 30.09 in - Calm Calm - N/A   Clear
6:30 PM 12.2 °F - 8.6 °F 85% 30.09 in - Calm Calm - N/A   Clear
7:00 PM 8.6 °F - 6.8 °F 92% 30.09 in - Calm Calm - N/A   Clear
7:30 PM 10.4 °F - 8.6 °F 92% 30.12 in - Calm Calm - N/A   Clear
8:00 PM 12.2 °F - 8.6 °F 85% 30.12 in - WSW 2.3 mph - N/A   Clear
9:00 PM 12.2 °F 4.3 °F 10.4 °F 92% 30.12 in - NW 4.6 mph - N/A   Clear
10:00 PM 12.2 °F - 10.4 °F 92% 30.12 in - Calm Calm - N/A   Clear
11:00 PM 15.8 °F 10.2 °F 14.0 °F 93% 30.12 in - WSW 3.5 mph - N/A   Clear